Weather History for KUIL - May, 2013

Change the Weather History Date:

Sunday, May 5, 2013

  Actual Average Record
Temperature  
Mean Temperature 68 °F 50 °F  
Max Temperature 88 °F 58 °F 88 °F (2013)
Min Temperature 48 °F 41 °F 33 °F (1978)
Degree Days  
Heating Degree Days 0 16  
Month to date heating degree days 42 80  
Since 1 July heating degree days 4798 5122  
Cooling Degree Days 3 0  
Month to date cooling degree days 3 0  
Year to date cooling degree days 3 0  
Growing Degree Days 19 (Base 50)    
Moisture  
Dew Point 39 °F    
Average Humidity 43    
Maximum Humidity 71    
Minimum Humidity 15    
Precipitation  
Precipitation 0.00 in 0.19 in 0.99 in (1997)
Month to date precipitation 0.00 0.96  
Year to date precipitation 49.03 44.60  
Sea Level Pressure  
Sea Level Pressure 29.86 in    
Wind  
Wind Speed 8 mph (NE)    
Max Wind Speed 20 mph    
Max Gust Speed 29 mph    
Visibility 9 miles    
Events      
T = Trace of Precipitation, MM = Missing Value Source: NWS Daily Summary

Daily Weather History Graph

Daily Weather History Graph

Search for Another Location

Airport or City:

Trip Planner

Search our weather history database for the weather conditions in past years. The results will help you decide how hot, cold, wet, or windy it might be!

Date:

Astronomy

May. 05, 2013 Rise Set
Actual Time 5:53 AM PDT 8:37 PM PDT
Civil Twilight 5:17 AM PDT 9:12 PM PDT
Nautical Twilight 4:33 AM PDT 9:58 PM PDT
Astronomical Twilight 3:40 AM PDT 10:51 PM PDT
Moon 3:45 AM PDT (5/5) 4:26 PM PDT (5/5)
Length of Visible Light 15h 54m
Length of Day
14h 44m
Waning Crescent, 17% of the Moon is Illuminated
May 5
Waning Crescent
May 9
New
May 17
First Quarter
May 24
Full
May 31
Last Quarter

Hourly Weather History & Observations

Time (PDT) Temp. Dew Point Humidity Pressure Visibility Wind Dir Wind Speed Gust Speed Precip Events Conditions
12:53 AM 57.0 °F 37.0 °F 47% 29.99 in 10.0 mi Calm Calm - N/A   Clear
1:53 AM 53.1 °F 39.9 °F 61% 29.98 in 10.0 mi Calm Calm - N/A   Clear
2:53 AM 51.1 °F 39.0 °F 63% 29.97 in 10.0 mi Calm Calm - N/A   Clear
3:53 AM 48.9 °F 39.9 °F 71% 29.96 in 10.0 mi NNE 6.9 mph - N/A   Clear
4:53 AM 52.0 °F 39.0 °F 61% 29.95 in 10.0 mi East 5.8 mph - N/A   Clear
5:53 AM 52.0 °F 39.0 °F 61% 29.94 in 8.0 mi Calm Calm - N/A   Clear
6:53 AM 53.1 °F 42.1 °F 66% 29.93 in 8.0 mi Calm Calm - N/A   Clear
7:53 AM 64.0 °F 43.0 °F 46% 29.92 in 8.0 mi Calm Calm - N/A   Clear
8:53 AM 77.0 °F 41.0 °F 28% 29.91 in 8.0 mi NE 13.8 mph 20.7 mph N/A   Clear
9:53 AM 80.1 °F 39.9 °F 24% 29.90 in 8.0 mi NNE 15.0 mph 20.7 mph N/A   Clear
10:53 AM 82.4 °F 42.8 °F 25% 29.89 in 8.0 mi NE 12.7 mph 23.0 mph N/A   Clear
11:53 AM 84.9 °F 41.0 °F 21% 29.87 in 9.0 mi NNE 12.7 mph 20.7 mph N/A   Clear
12:53 PM 84.9 °F 42.1 °F 22% 29.85 in 9.0 mi North 15.0 mph 24.2 mph N/A   Clear
1:53 PM 86.0 °F 39.9 °F 20% 29.83 in 9.0 mi NE 12.7 mph 24.2 mph N/A   Clear
2:53 PM 88.0 °F 39.9 °F 18% 29.82 in 9.0 mi NE 11.5 mph 23.0 mph N/A   Clear
3:53 PM 88.0 °F 37.0 °F 16% 29.80 in 9.0 mi NE 15.0 mph 21.9 mph N/A   Clear
4:53 PM 87.1 °F 35.1 °F 16% 29.79 in 9.0 mi NE 13.8 mph 21.9 mph N/A   Clear
5:53 PM 86.0 °F 33.1 °F 15% 29.77 in 9.0 mi NNE 11.5 mph 18.4 mph N/A   Clear
6:53 PM 84.0 °F 32.0 °F 15% 29.76 in 9.0 mi NNE 8.1 mph - N/A   Clear
7:53 PM 81.0 °F 34.0 °F 18% 29.76 in 9.0 mi NNE 9.2 mph - N/A   Clear
8:53 PM 75.9 °F 34.0 °F 22% 29.76 in 9.0 mi North 5.8 mph - N/A   Clear
9:53 PM 66.0 °F 43.0 °F 43% 29.78 in 10.0 mi Calm Calm - N/A   Clear
10:53 PM 64.9 °F 43.0 °F 45% 29.80 in 10.0 mi East 8.1 mph - N/A   Clear
11:53 PM 64.9 °F 42.1 °F 43% 29.81 in 10.0 mi ENE 8.1 mph - N/A   Clear